Lovell Field Chattanooga US
ICAO: KCHA
IATA: CHA
Category: Large
Scheduled Services: Yes

Elevation: 683 ft
TransAlt. 18000 ft.

Airport Communications:
CHATTANOOGA APP:119.2
CHATTANOOGA APP:122.5
ATIS:119.85
CLNC DEL:120.95
CTAF:118.3
CHATTANOOGA DEP:119.2
GND:121.7
ARNG OPS:41.5
CHATTANOOGA TWR:118.3
UNICOM:122.95

KCHA Zoom In..

If you have problems with the map follow the link
https://www.worldairports.se/pages/airport.php?
ICAO=KCHA

Runways:

(A) RW 02 length 7400 ft width 150 ft
ILS 108.30 / hdg 19

(B) RW 15 length 5575 ft width 150 ft
---- / hdg 147

(C) RW 20 length 7400 ft width 150 ft
ILS 109.50 / hdg 199

(D) RW 33 length 5575 ft width 150 ft
---- / hdg 327

Location; KCHA
Day. 18 / Time. 21.53 Zulu
* Altimeter: 30.07
* Temperature: 12° c. 53.6°f.
* Wind from: 000° Speed 00 kn.
Dewpoint: 08° c.
Visibility: 9 Statute Miles.
Clouds: Few 1500 ft.
Clouds: Scattered 2600 ft.
Clouds: Broken 4900 ft.

KCHA 182153Z 00000KT 9SM FEW015 SCT026 BKN049 12/08 A3007 RMK AO2 SLP180 T01220078


Wind - Calm.

 
 
jpsmedia.com for Web Design worldairports.se 2019   terms of use